EW0362 Weather Reports


time (UTC)temp
F
wind
direction
speed
knots
gust
knots
rain 1hr
in
rain 24hr
in
rain mn
in
humidity
%
barometer
mb
20260906222203 68 266 0.9 2.6 0.00 0.06 0.06 60 1014.0
20260906220703 68 290 0.0 0.9 0.00 0.06 0.06 61 1013.9
20260906215703 68 49 1.7 4.3 0.00 0.06 0.06 64 1013.9
20260906214704 68 164 0.0 0.9 0.00 0.06 0.06 66 1013.9
20260906214203 68 165 0.0 1.7 0.00 0.06 0.06 65 1013.9
20260906212704 68 271 0.0 2.6 0.00 0.06 0.06 68 1013.9
20260906212205 68 71 0.0 0.9 0.00 0.06 0.06 68 1013.8
20260906211703 68 71 0.0 0.9 0.00 0.06 0.06 68 1013.8
20260906211208 68 73 0.0 0.9 0.00 0.06 0.06 72 1013.7
20260906204703 69 350 0.9 5.2 0.00 0.06 0.06 65 1013.7
20260906204203 69 242 0.0 0.9 0.00 0.06 0.06 67 1013.6
20260906203703 69 242 0.0 0.9 0.00 0.06 0.06 69 1013.6
20260906202708 69 245 0.9 2.6 0.00 0.06 0.06 71 1013.6
20260906202207 69 223 0.0 1.7 0.00 0.06 0.06 70 1013.6
20260906201704 69 226 0.9 2.6 0.00 0.06 0.06 69 1013.6
20260906201206 70 234 0.0 0.0 0.00 0.06 0.06 73 1013.6
20260906195203 70 57 0.0 1.7 0.00 0.06 0.06 68 1013.4
20260906194203 69 55 0.9 2.6 0.00 0.06 0.06 67 1013.5
20260906192704 70 146 0.0 0.9 0.00 0.06 0.06 66 1013.4
20260906190203 70 73 0.9 1.7 0.00 0.06 0.06 67 1013.6
20260906185206 69 65 0.9 2.6 0.00 0.06 0.06 67 1013.7
20260906183703 69 264 1.7 4.3 0.00 0.06 0.06 68 1013.8
20260906183205 69 229 0.9 4.3 0.00 0.06 0.06 70 1013.9
20260906181203 69 89 0.9 2.6 0.00 0.06 0.06 72 1013.9
20260906180703 69 60 0.9 4.3 0.00 0.06 0.06 74 1014.0
20260906180203 69 229 0.0 1.7 0.00 0.06 0.06 74 1013.9
20260906175704 68 228 0.0 2.6 0.00 0.06 0.06 74 1014.0
20260906174203 68 228 0.9 1.7 0.00 0.06 0.06 76 1014.1
20260906173703 68 131 0.0 1.7 0.00 0.06 0.06 76 1014.2
20260906172702 67 279 0.9 1.7 0.00 0.06 0.06 74 1014.4
20260906171202 67 51 0.0 2.6 0.00 0.06 0.06 74 1014.6
20260906165203 68 85 0.9 2.6 0.00 0.06 0.06 73 1014.8
20260906163703 66 88 0.9 4.3 0.00 0.06 0.06 73 1014.9
20260906163203 66 300 0.9 4.3 0.00 0.06 0.06 77 1014.9
20260906162202 65 244 2.6 5.2 0.00 0.06 0.06 79 1014.9
20260906161703 65 216 1.7 5.2 0.00 0.06 0.06 83 1015.0
20260906160703 65 85 0.0 4.3 0.00 0.06 0.06 86 1015.1
20260906155203 65 266 0.0 2.6 0.00 0.06 0.06 84 1015.2
20260906154203 64 71 0.9 2.6 0.00 0.06 0.06 83 1015.1
20260906152702 64 271 0.0 1.7 0.00 0.06 0.06 89 1015.3
20260906152203 64 271 0.0 1.7 0.00 0.06 0.06 88 1015.3
20260906151703 63 266 0.0 1.7 0.00 0.06 0.06 90 1015.3
20260906145702 63 285 0.0 0.0 0.00 0.06 0.06 91 1015.6
20260906145203 63 285 0.0 0.9 0.00 0.06 0.06 91 1015.5
20260906144702 63 285 0.9 1.7 0.00 0.06 0.06 91 1015.6
20260906144203 63 141 0.9 1.7 0.00 0.06 0.06 90 1015.6
20260906143703 63 120 0.0 1.7 0.00 0.06 0.06 90 1015.6
20260906143203 62 121 0.0 0.9 0.00 0.06 0.06 90 1015.6
20260906141203 62 98 0.0 0.9 0.00 0.06 0.06 92 1015.6
20260906135203 61 98 0.0 0.9 0.00 0.06 0.06 94 1015.6
20260906133703 61 58 0.0 1.7 0.00 0.06 0.06 94 1015.5
20260906130703 60 59 0.9 1.7 0.00 0.06 0.06 97 1015.4
20260906125703 60 57 0.0 0.0 0.00 0.06 0.06 98 1015.4
20260906122702 60 57 0.0 0.0 0.00 0.06 0.06 98 1015.5
20260906122203 60 57 0.0 0.0 0.00 0.06 0.06 98 1015.4
20260906121702 59 57 0.0 0.0 0.00 0.06 0.06 98 1015.5
20260906115702 59 57 0.0 0.9 0.00 0.06 0.06 97 1015.3
20260906114702 58 57 0.0 0.0 0.00 0.06 0.06 97 1015.3
20260906112703 58 57 0.0 0.0 0.01 0.06 0.06 97 1015.1
20260906112204 58 57 0.0 0.0 0.01 0.06 0.06 96 1015.0
20260906110704 58 57 0.0 0.0 0.01 0.06 0.06 96 1014.8
20260906110203 58 57 0.0 0.0 0.01 0.06 0.06 96 1014.8
20260906105704 58 57 0.0 0.0 0.01 0.06 0.06 96 1014.7
20260906104704 58 57 0.0 0.0 0.01 0.06 0.06 96 1014.7
20260906103704 58 57 0.0 0.0 0.00 0.05 0.05 96 1014.5
20260906103203 58 57 0.0 0.0 0.00 0.05 0.05 96 1014.4
20260906102704 58 57 0.0 0.0 0.00 0.05 0.05 96 1014.3
20260906102203 58 57 0.0 0.0 0.00 0.05 0.05 96 1014.2
20260906101204 58 57 0.0 0.0 0.00 0.05 0.05 96 1014.2
20260906100704 58 57 0.0 0.0 0.00 0.05 0.05 96 1014.2
20260906094704 59 57 0.0 0.0 0.00 0.05 0.05 96 1014.0
20260906092704 59 57 0.0 0.9 0.02 0.05 0.05 95 1013.8
20260906092203 59 57 0.0 0.0 0.03 0.05 0.05 96 1013.7
20260906091704 59 57 0.0 0.0 0.03 0.05 0.05 96 1013.8
20260906090704 59 57 0.0 0.0 0.04 0.05 0.05 96 1013.8
20260906084703 60 57 0.0 0.0 0.04 0.05 0.05 95 1013.8
20260906083704 60 57 0.0 0.9 0.03 0.04 0.04 96 1013.7
20260906083203 60 57 0.0 0.0 0.03 0.04 0.04 96 1014.0
20260906082703 60 57 0.0 0.9 0.02 0.03 0.03 95 1013.9
20260906081703 60 57 0.0 0.0 0.01 0.02 0.02 95 1013.4
20260906074704 60 57 0.0 0.0 0.00 0.01 0.01 95 1013.5
20260906074204 61 57 0.0 0.0 0.00 0.01 0.01 95 1013.3
20260906073703 61 57 0.0 0.0 0.00 0.01 0.01 95 1013.2
20260906072703 61 57 0.0 0.0 0.00 0.01 0.01 95 1013.1
20260906072204 61 57 0.0 0.0 0.00 0.01 0.01 95 1013.1
20260906071203 61 57 0.0 0.0 0.01 0.01 0.01 95 1013.0
20260906070704 61 57 0.0 0.0 0.01 0.01 0.01 95 1013.0
20260906070203 61 57 0.0 0.0 0.01 0.01 0.01 95 1013.1
20260906063704 62 57 0.0 0.0 0.01 0.01 0.01 95 1012.9
20260906062703 62 57 0.0 0.0 0.01 0.01 0.01 95 1012.9
20260906062203 62 57 0.0 0.0 0.01 0.01 0.01 95 1012.8
20260906061204 62 56 0.0 0.0 0.00 0.00 0.00 96 1013.0
20260906060703 62 56 0.0 0.0 0.00 0.00 0.00 96 1013.1
20260906055204 62 56 0.0 0.0 0.00 0.00 0.00 96 1012.9
20260906054704 62 56 0.0 0.0 0.00 0.00 0.00 96 1012.9
20260906054203 63 56 0.0 0.0 0.00 0.00 0.00 96 1012.9
20260906053704 63 56 0.0 0.0 0.00 0.00 0.00 96 1012.9
20260906052703 63 56 0.0 0.0 0.00 0.00 0.00 96 1012.9
20260906052204 63 56 0.0 0.0 0.00 0.00 0.00 96 1013.0
20260906051204 63 56 0.0 0.0 0.00 0.00 0.00 95 1013.0
20260906045704 63 56 0.0 0.0 0.00 0.00 0.00 95 1013.1
20260906045204 63 56 0.0 0.0 0.00 0.00 0.00 95 1013.1
20260906044704 63 56 0.0 0.0 0.00 0.00 0.00 95 1013.1
20260906044204 63 56 0.0 0.0 0.00 0.00 0.00 95 1013.0
20260906043203 63 56 0.0 0.0 0.00 0.00 0.00 95 1013.0
20260906042205 63 56 0.0 0.0 0.00 0.00 0.00 95 1013.0
20260906041205 63 56 0.0 0.0 0.00 0.00 0.00 95 1013.0
20260906035705 63 56 0.0 0.0 0.00 0.00 0.00 95 1013.0
20260906035205 63 56 0.0 0.0 0.00 0.00 0.00 95 1013.0
20260906034705 63 56 0.0 0.0 0.00 0.00 0.00 95 1013.0
20260906033705 63 56 0.0 0.0 0.00 0.00 0.00 95 1012.9
20260906032705 63 56 0.0 0.0 0.00 0.00 0.00 95 1012.9
20260906032205 63 56 0.0 0.0 0.00 0.00 0.00 95 1012.8
20260906030705 63 56 0.0 0.0 0.00 0.00 0.00 95 1012.7
20260906025704 63 56 0.0 0.0 0.00 0.00 0.00 95 1012.8
20260906025204 63 56 0.0 0.0 0.00 0.00 0.00 95 1012.7
20260906024705 63 56 0.0 0.0 0.00 0.00 0.00 95 1012.7
20260906024204 63 56 0.0 0.0 0.00 0.00 0.00 95 1012.8
20260906022705 63 56 0.0 0.0 0.00 0.00 0.00 94 1012.7
20260906022205 63 56 0.0 0.0 0.00 0.00 0.00 94 1012.6
20260906021205 63 56 0.0 0.0 0.00 0.00 0.00 94 1012.6
20260906020704 63 56 0.0 0.0 0.00 0.00 0.00 94 1012.6
20260906020205 63 56 0.0 0.0 0.00 0.00 0.00 94 1012.7
20260906015204 64 56 0.0 0.0 0.00 0.00 0.00 94 1012.7
20260906014204 64 56 0.0 0.0 0.00 0.00 0.00 94 1012.8
20260906013704 64 56 0.0 0.0 0.00 0.00 0.00 94 1012.8
20260906011704 64 56 0.0 0.0 0.00 0.00 0.00 94 1012.8
20260906005205 64 56 0.0 0.0 0.00 0.00 0.00 93 1012.6
20260906004704 64 56 0.0 0.0 0.00 0.00 0.00 93 1012.6
20260906004204 64 56 0.0 0.0 0.00 0.00 0.00 93 1012.6
20260906002204 64 56 0.0 0.0 0.00 0.00 0.00 92 1012.3
20260906001705 64 56 0.0 0.0 0.00 0.00 0.00 92 1012.3
20260906001205 64 56 0.0 0.0 0.00 0.00 0.00 92 1012.3
20260905235705 65 56 0.0 0.0 0.00 0.00 0.00 92 1012.2
20260905235205 65 56 0.0 0.0 0.00 0.00 0.00 91 1012.2
20260905232704 65 56 0.0 0.0 0.00 0.00 0.00 91 1012.0
20260905232204 65 56 0.0 0.0 0.00 0.00 0.00 91 1012.0
20260905231705 65 56 0.0 0.0 0.00 0.00 0.00 91 1011.9
20260905230704 65 56 0.0 0.0 0.00 0.00 0.00 90 1011.9
20260905230205 65 56 0.0 0.0 0.00 0.00 0.00 90 1011.9
20260905224705 66 56 0.0 0.0 0.00 0.00 0.00 90 1011.7
20260905223704 66 56 0.0 0.0 0.00 0.00 0.00 90 1011.7